Time,TemperatureF,DewpointF,PressureIn,WindDirection,WindDirectionDegrees,WindSpeedMPH,WindSpeedGustMPH,Humidity,HourlyPrecipIn,Conditions,Clouds,dailyrainin,SoftwareType,DateUTC
2013-05-29 00:00:00,51.0,51.0,29.73,SSE,150,10.0,14.0,100,-99.99,,,-99.99,,2013-05-29 07:00:00,
2013-05-29 00:11:00,51.0,51.0,29.73,SSE,150,10.0,14.0,100,-99.99,,,-99.99,,2013-05-29 07:11:00,
2013-05-29 00:21:00,51.0,51.0,29.73,SSE,150,10.0,14.0,100,-99.99,,,-99.99,,2013-05-29 07:21:00,
2013-05-29 00:31:00,51.0,51.0,29.73,SSE,150,10.0,14.0,100,-99.99,,,-99.99,,2013-05-29 07:31:00,
2013-05-29 00:41:00,51.0,51.0,29.73,SSE,150,10.0,14.0,100,-99.99,,,-99.99,,2013-05-29 07:41:00,
2013-05-29 00:52:00,51.0,51.0,29.73,SSE,150,10.0,14.0,100,-99.99,,,-99.99,,2013-05-29 07:52:00,
2013-05-29 01:00:00,52.0,52.0,29.68,SSE,150,10.0,15.0,100,-99.99,,,-99.99,,2013-05-29 08:00:00,
2013-05-29 01:11:00,52.0,52.0,29.68,SSE,150,10.0,15.0,100,-99.99,,,-99.99,,2013-05-29 08:11:00,
2013-05-29 01:21:00,52.0,52.0,29.68,SSE,150,10.0,15.0,100,-99.99,,,-99.99,,2013-05-29 08:21:00,
2013-05-29 01:31:00,52.0,52.0,29.68,SSE,150,10.0,15.0,100,-99.99,,,-99.99,,2013-05-29 08:31:00,
2013-05-29 01:41:00,52.0,52.0,29.68,SSE,150,10.0,15.0,100,-99.99,,,-99.99,,2013-05-29 08:41:00,
2013-05-29 01:51:00,52.0,52.0,29.68,SSE,150,10.0,15.0,100,-99.99,,,-99.99,,2013-05-29 08:51:00,
2013-05-29 02:00:00,54.0,54.0,29.65,South,180,36.0,46.0,100,-99.99,,,-99.99,,2013-05-29 09:00:00,
2013-05-29 02:11:00,54.0,54.0,29.65,South,180,36.0,46.0,100,-99.99,,,-99.99,,2013-05-29 09:11:00,
2013-05-29 02:21:00,54.0,54.0,29.65,South,180,36.0,46.0,100,-99.99,,,-99.99,,2013-05-29 09:21:00,
2013-05-29 02:32:00,54.0,54.0,29.65,South,180,36.0,46.0,100,-99.99,,,-99.99,,2013-05-29 09:32:00,
2013-05-29 02:42:00,54.0,54.0,29.65,South,180,36.0,46.0,100,-99.99,,,-99.99,,2013-05-29 09:42:00,
2013-05-29 02:52:00,54.0,54.0,29.65,South,180,36.0,46.0,100,-99.99,,,-99.99,,2013-05-29 09:52:00,
2013-05-29 03:00:00,54.0,54.0,29.65,South,190,36.0,41.0,100,-99.99,,,-99.99,,2013-05-29 10:00:00,
2013-05-29 03:12:00,54.0,54.0,29.65,South,190,36.0,41.0,100,-99.99,,,-99.99,,2013-05-29 10:12:00,
2013-05-29 03:22:00,54.0,54.0,29.65,South,190,36.0,41.0,100,-99.99,,,-99.99,,2013-05-29 10:22:00,
2013-05-29 03:32:00,54.0,54.0,29.65,South,190,36.0,41.0,100,-99.99,,,-99.99,,2013-05-29 10:32:00,
2013-05-29 03:42:00,54.0,54.0,29.65,South,190,36.0,41.0,100,-99.99,,,-99.99,,2013-05-29 10:42:00,
2013-05-29 03:52:00,54.0,54.0,29.65,South,190,36.0,41.0,100,-99.99,,,-99.99,,2013-05-29 10:52:00,
2013-05-29 04:00:00,54.0,54.0,29.65,SSW,210,28.0,33.0,100,-99.99,,,-99.99,,2013-05-29 11:00:00,
2013-05-29 04:11:00,54.0,54.0,29.65,SSW,210,28.0,33.0,100,-99.99,,,-99.99,,2013-05-29 11:11:00,
2013-05-29 04:21:00,54.0,54.0,29.65,SSW,210,28.0,33.0,100,-99.99,,,-99.99,,2013-05-29 11:21:00,
2013-05-29 04:32:00,54.0,54.0,29.65,SSW,210,28.0,33.0,100,-99.99,,,-99.99,,2013-05-29 11:32:00,
2013-05-29 04:41:00,54.0,54.0,29.65,SSW,210,28.0,33.0,100,-99.99,,,-99.99,,2013-05-29 11:41:00,
2013-05-29 04:51:00,54.0,54.0,29.65,SSW,210,28.0,33.0,100,-99.99,,,-99.99,,2013-05-29 11:51:00,
2013-05-29 05:00:00,54.0,54.0,29.66,SW,230,20.0,23.0,100,-99.99,,,-99.99,,2013-05-29 12:00:00,
2013-05-29 05:21:00,54.0,54.0,29.66,SW,230,20.0,23.0,100,-99.99,,,-99.99,,2013-05-29 12:21:00,
2013-05-29 05:31:00,54.0,54.0,29.66,SW,230,20.0,23.0,100,-99.99,,,-99.99,,2013-05-29 12:31:00,
2013-05-29 05:41:00,54.0,54.0,29.66,SW,230,20.0,23.0,100,-99.99,,,-99.99,,2013-05-29 12:41:00,
2013-05-29 05:51:00,54.0,54.0,29.66,SW,230,20.0,23.0,100,-99.99,,,-99.99,,2013-05-29 12:51:00,
2013-05-29 06:00:00,54.0,54.0,29.75,West,260,20.0,23.0,100,-99.99,,,-99.99,,2013-05-29 13:00:00,
2013-05-29 06:21:00,54.0,54.0,29.75,West,260,20.0,23.0,100,-99.99,,,-99.99,,2013-05-29 13:21:00,
2013-05-29 06:31:00,54.0,54.0,29.75,West,260,20.0,23.0,100,-99.99,,,-99.99,,2013-05-29 13:31:00,
2013-05-29 06:42:00,54.0,54.0,29.75,West,260,20.0,23.0,100,-99.99,,,-99.99,,2013-05-29 13:42:00,
2013-05-29 06:52:00,54.0,54.0,29.75,West,260,20.0,23.0,100,-99.99,,,-99.99,,2013-05-29 13:52:00,
2013-05-29 07:00:00,54.0,54.0,29.80,WSW,250,21.0,24.0,100,-99.99,,,-99.99,,2013-05-29 14:00:00,
2013-05-29 07:21:00,54.0,54.0,29.80,WSW,250,21.0,24.0,100,-99.99,,,-99.99,,2013-05-29 14:21:00,
2013-05-29 07:31:00,54.0,54.0,29.80,WSW,250,21.0,24.0,100,-99.99,,,-99.99,,2013-05-29 14:31:00,
2013-05-29 07:41:00,54.0,54.0,29.80,WSW,250,21.0,24.0,100,-99.99,,,-99.99,,2013-05-29 14:41:00,
2013-05-29 07:51:00,54.0,54.0,29.80,WSW,250,21.0,24.0,100,-99.99,,,-99.99,,2013-05-29 14:51:00,
2013-05-29 08:00:00,53.0,53.0,29.83,WSW,250,20.0,24.0,100,-99.99,,,-99.99,,2013-05-29 15:00:00,
2013-05-29 08:21:00,53.0,53.0,29.83,WSW,250,20.0,24.0,100,-99.99,,,-99.99,,2013-05-29 15:21:00,
2013-05-29 08:32:00,53.0,53.0,29.83,WSW,250,20.0,24.0,100,-99.99,,,-99.99,,2013-05-29 15:32:00,
2013-05-29 08:42:00,53.0,53.0,29.83,WSW,250,20.0,24.0,100,-99.99,,,-99.99,,2013-05-29 15:42:00,
2013-05-29 08:52:00,53.0,53.0,29.83,WSW,250,20.0,24.0,100,-99.99,,,-99.99,,2013-05-29 15:52:00,
2013-05-29 09:00:00,53.0,53.0,29.87,WSW,250,21.0,24.0,100,-99.99,,,-99.99,,2013-05-29 16:00:00,
2013-05-29 09:12:00,53.0,53.0,29.87,WSW,250,21.0,24.0,100,-99.99,,,-99.99,,2013-05-29 16:12:00,
2013-05-29 09:21:00,53.0,53.0,29.87,WSW,250,21.0,24.0,100,-99.99,,,-99.99,,2013-05-29 16:21:00,
2013-05-29 09:32:00,53.0,53.0,29.87,WSW,250,21.0,24.0,100,-99.99,,,-99.99,,2013-05-29 16:32:00,
2013-05-29 09:42:00,53.0,53.0,29.87,WSW,250,21.0,24.0,100,-99.99,,,-99.99,,2013-05-29 16:42:00,
2013-05-29 09:52:00,53.0,53.0,29.87,WSW,250,21.0,24.0,100,-99.99,,,-99.99,,2013-05-29 16:52:00,
2013-05-29 10:00:00,54.0,53.0,29.90,WSW,250,16.0,21.0,97,-99.99,,,-99.99,,2013-05-29 17:00:00,
2013-05-29 10:11:00,54.0,53.0,29.90,WSW,250,16.0,21.0,97,-99.99,,,-99.99,,2013-05-29 17:11:00,
2013-05-29 10:21:00,54.0,53.0,29.90,WSW,250,16.0,21.0,97,-99.99,,,-99.99,,2013-05-29 17:21:00,
2013-05-29 10:32:00,54.0,53.0,29.90,WSW,250,16.0,21.0,97,-99.99,,,-99.99,,2013-05-29 17:32:00,
2013-05-29 10:42:00,54.0,53.0,29.90,WSW,250,16.0,21.0,97,-99.99,,,-99.99,,2013-05-29 17:42:00,
2013-05-29 10:52:00,54.0,53.0,29.90,WSW,250,16.0,21.0,97,-99.99,,,-99.99,,2013-05-29 17:52:00,
2013-05-29 11:00:00,55.0,52.0,29.93,WSW,240,9.0,11.0,89,-99.99,,,-99.99,,2013-05-29 18:00:00,
2013-05-29 11:12:00,55.0,52.0,29.93,WSW,240,9.0,11.0,89,-99.99,,,-99.99,,2013-05-29 18:12:00,
2013-05-29 11:21:00,55.0,52.0,29.93,WSW,240,9.0,11.0,89,-99.99,,,-99.99,,2013-05-29 18:21:00,
2013-05-29 11:32:00,55.0,52.0,29.93,WSW,240,9.0,11.0,89,-99.99,,,-99.99,,2013-05-29 18:32:00,
2013-05-29 11:41:00,55.0,52.0,29.93,WSW,240,9.0,11.0,89,-99.99,,,-99.99,,2013-05-29 18:41:00,
2013-05-29 11:51:00,55.0,52.0,29.93,WSW,240,9.0,11.0,89,-99.99,,,-99.99,,2013-05-29 18:51:00,
2013-05-29 12:00:00,55.0,52.0,29.95,SSW,200,11.0,14.0,89,-99.99,,,-99.99,,2013-05-29 19:00:00,
2013-05-29 12:11:00,55.0,52.0,29.95,SSW,200,11.0,14.0,89,-99.99,,,-99.99,,2013-05-29 19:11:00,
2013-05-29 12:21:00,55.0,52.0,29.95,SSW,200,11.0,14.0,89,-99.99,,,-99.99,,2013-05-29 19:21:00,
2013-05-29 12:31:00,55.0,52.0,29.95,SSW,200,11.0,14.0,89,-99.99,,,-99.99,,2013-05-29 19:31:00,
2013-05-29 12:44:00,55.0,52.0,29.95,SSW,200,11.0,14.0,89,-99.99,,,-99.99,,2013-05-29 19:44:00,
2013-05-29 12:52:00,55.0,52.0,29.95,SSW,200,11.0,14.0,89,-99.99,,,-99.99,,2013-05-29 19:52:00,
2013-05-29 13:00:00,54.0,54.0,29.97,SW,220,15.0,17.0,98,-99.99,,,-99.99,,2013-05-29 20:00:00,
2013-05-29 13:22:00,54.0,54.0,29.97,SW,220,15.0,17.0,98,-99.99,,,-99.99,,2013-05-29 20:22:00,
2013-05-29 13:32:00,54.0,54.0,29.97,SW,220,15.0,17.0,98,-99.99,,,-99.99,,2013-05-29 20:32:00,
2013-05-29 13:41:00,54.0,54.0,29.97,SW,220,15.0,17.0,98,-99.99,,,-99.99,,2013-05-29 20:41:00,
2013-05-29 13:52:00,54.0,54.0,29.97,SW,220,15.0,17.0,98,-99.99,,,-99.99,,2013-05-29 20:52:00,
2013-05-29 14:00:00,55.0,53.0,29.98,SSW,200,16.0,18.0,95,-99.99,,,-99.99,,2013-05-29 21:00:00,
2013-05-29 14:12:00,55.0,53.0,29.98,SSW,200,16.0,18.0,95,-99.99,,,-99.99,,2013-05-29 21:12:00,
2013-05-29 14:22:00,55.0,53.0,29.98,SSW,200,16.0,18.0,95,-99.99,,,-99.99,,2013-05-29 21:22:00,
2013-05-29 14:33:00,55.0,53.0,29.98,SSW,200,16.0,18.0,95,-99.99,,,-99.99,,2013-05-29 21:33:00,
2013-05-29 14:43:00,55.0,53.0,29.98,SSW,200,16.0,18.0,95,-99.99,,,-99.99,,2013-05-29 21:43:00,
2013-05-29 14:53:00,55.0,53.0,29.98,SSW,200,16.0,18.0,95,-99.99,,,-99.99,,2013-05-29 21:53:00,
2013-05-29 15:00:00,54.0,54.0,29.99,WSW,250,15.0,17.0,100,-99.99,,,-99.99,,2013-05-29 22:00:00,
2013-05-29 15:22:00,54.0,54.0,29.99,WSW,250,15.0,17.0,100,-99.99,,,-99.99,,2013-05-29 22:22:00,
2013-05-29 15:33:00,54.0,54.0,29.99,WSW,250,15.0,17.0,100,-99.99,,,-99.99,,2013-05-29 22:33:00,
2013-05-29 15:42:00,54.0,54.0,29.99,WSW,250,15.0,17.0,100,-99.99,,,-99.99,,2013-05-29 22:42:00,
2013-05-29 15:52:00,54.0,54.0,29.99,WSW,250,15.0,17.0,100,-99.99,,,-99.99,,2013-05-29 22:52:00,
2013-05-29 16:00:00,53.0,53.0,30.01,West,260,8.0,9.0,100,-99.99,,,-99.99,,2013-05-29 23:00:00,
2013-05-29 16:11:00,53.0,53.0,30.01,West,260,8.0,9.0,100,-99.99,,,-99.99,,2013-05-29 23:11:00,
2013-05-29 16:21:00,53.0,53.0,30.01,West,260,8.0,9.0,100,-99.99,,,-99.99,,2013-05-29 23:21:00,
2013-05-29 16:33:00,53.0,53.0,30.01,West,260,8.0,9.0,100,-99.99,,,-99.99,,2013-05-29 23:33:00,
2013-05-29 16:42:00,53.0,53.0,30.01,West,260,8.0,9.0,100,-99.99,,,-99.99,,2013-05-29 23:42:00,
2013-05-29 16:52:00,53.0,53.0,30.01,West,260,8.0,9.0,100,-99.99,,,-99.99,,2013-05-29 23:52:00,
2013-05-29 17:00:00,54.0,51.0,30.02,West,260,13.0,14.0,89,-99.99,,,-99.99,,2013-05-30 00:00:00,
2013-05-29 17:21:00,54.0,51.0,30.02,West,260,13.0,14.0,89,-99.99,,,-99.99,,2013-05-30 00:21:00,
2013-05-29 17:31:00,54.0,51.0,30.02,West,260,13.0,14.0,89,-99.99,,,-99.99,,2013-05-30 00:31:00,
2013-05-29 17:41:00,54.0,51.0,30.02,West,260,13.0,14.0,89,-99.99,,,-99.99,,2013-05-30 00:41:00,
2013-05-29 17:52:00,54.0,51.0,30.02,West,260,13.0,14.0,89,-99.99,,,-99.99,,2013-05-30 00:52:00,
2013-05-29 18:00:00,54.0,51.0,30.03,West,260,11.0,14.0,88,-99.99,,,-99.99,,2013-05-30 01:00:00,
2013-05-29 18:11:00,54.0,51.0,30.03,West,260,11.0,14.0,88,-99.99,,,-99.99,,2013-05-30 01:11:00,
2013-05-29 18:21:00,54.0,51.0,30.03,West,260,11.0,14.0,88,-99.99,,,-99.99,,2013-05-30 01:21:00,
2013-05-29 18:31:00,54.0,51.0,30.03,West,260,11.0,14.0,88,-99.99,,,-99.99,,2013-05-30 01:31:00,
2013-05-29 18:41:00,54.0,51.0,30.03,West,260,11.0,14.0,88,-99.99,,,-99.99,,2013-05-30 01:41:00,
2013-05-29 18:52:00,54.0,51.0,30.03,West,260,11.0,14.0,88,-99.99,,,-99.99,,2013-05-30 01:52:00,
2013-05-29 19:00:00,54.0,49.0,30.04,West,260,14.0,15.0,85,-99.99,,,-99.99,,2013-05-30 02:00:00,
2013-05-29 19:21:00,54.0,49.0,30.04,West,260,14.0,15.0,85,-99.99,,,-99.99,,2013-05-30 02:21:00,
2013-05-29 19:31:00,54.0,49.0,30.04,West,260,14.0,15.0,85,-99.99,,,-99.99,,2013-05-30 02:31:00,
2013-05-29 19:42:00,54.0,49.0,30.04,West,260,14.0,15.0,85,-99.99,,,-99.99,,2013-05-30 02:42:00,
2013-05-29 19:52:00,54.0,49.0,30.04,West,260,14.0,15.0,85,-99.99,,,-99.99,,2013-05-30 02:52:00,
2013-05-29 20:00:00,53.0,48.0,30.06,West,260,9.0,10.0,83,-99.99,,,-99.99,,2013-05-30 03:00:00,
2013-05-29 20:11:00,53.0,48.0,30.06,West,260,9.0,10.0,83,-99.99,,,-99.99,,2013-05-30 03:11:00,
2013-05-29 20:21:00,53.0,48.0,30.06,West,260,9.0,10.0,83,-99.99,,,-99.99,,2013-05-30 03:21:00,
2013-05-29 20:32:00,53.0,48.0,30.06,West,260,9.0,10.0,83,-99.99,,,-99.99,,2013-05-30 03:32:00,
2013-05-29 20:42:00,53.0,48.0,30.06,West,260,9.0,10.0,83,-99.99,,,-99.99,,2013-05-30 03:42:00,
2013-05-29 20:53:00,53.0,48.0,30.06,West,260,9.0,10.0,83,-99.99,,,-99.99,,2013-05-30 03:53:00,
2013-05-29 21:00:00,53.0,49.0,30.07,West,260,13.0,14.0,88,-99.99,,,-99.99,,2013-05-30 04:00:00,
2013-05-29 21:12:00,53.0,49.0,30.07,West,260,13.0,14.0,88,-99.99,,,-99.99,,2013-05-30 04:12:00,
2013-05-29 21:22:00,53.0,49.0,30.07,West,260,13.0,14.0,88,-99.99,,,-99.99,,2013-05-30 04:22:00,
2013-05-29 21:32:00,53.0,49.0,30.07,West,260,13.0,14.0,88,-99.99,,,-99.99,,2013-05-30 04:32:00,
2013-05-29 21:42:00,53.0,49.0,30.07,West,260,13.0,14.0,88,-99.99,,,-99.99,,2013-05-30 04:42:00,
2013-05-29 21:52:00,53.0,49.0,30.07,West,260,13.0,14.0,88,-99.99,,,-99.99,,2013-05-30 04:52:00,
2013-05-29 22:00:00,52.0,49.0,30.08,SW,230,7.0,8.0,89,-99.99,,,-99.99,,2013-05-30 05:00:00,
2013-05-29 22:12:00,52.0,49.0,30.08,SW,230,7.0,8.0,89,-99.99,,,-99.99,,2013-05-30 05:12:00,
2013-05-29 22:21:00,52.0,49.0,30.08,SW,230,7.0,8.0,89,-99.99,,,-99.99,,2013-05-30 05:21:00,
2013-05-29 22:32:00,52.0,49.0,30.08,SW,230,7.0,8.0,89,-99.99,,,-99.99,,2013-05-30 05:32:00,
2013-05-29 22:42:00,52.0,49.0,30.08,SW,230,7.0,8.0,89,-99.99,,,-99.99,,2013-05-30 05:42:00,
2013-05-29 22:52:00,52.0,49.0,30.08,SW,230,7.0,8.0,89,-99.99,,,-99.99,,2013-05-30 05:52:00,
2013-05-29 23:00:00,53.0,49.0,30.10,SW,230,7.0,9.0,89,-99.99,,,-99.99,,2013-05-30 06:00:00,
2013-05-29 23:21:00,53.0,49.0,30.10,SW,230,7.0,9.0,89,-99.99,,,-99.99,,2013-05-30 06:21:00,
2013-05-29 23:32:00,53.0,49.0,30.10,SW,230,7.0,9.0,89,-99.99,,,-99.99,,2013-05-30 06:32:00,
2013-05-29 23:41:00,53.0,49.0,30.10,SW,230,7.0,9.0,89,-99.99,,,-99.99,,2013-05-30 06:41:00,
2013-05-29 23:51:00,53.0,49.0,30.10,SW,230,7.0,9.0,89,-99.99,,,-99.99,,2013-05-30 06:51:00,